Meteo Giornale » Osservazioni meteo Italia » Treviso-S Angelo

ore: 07:20 - Osservazioni Meteo Treviso-S Angelo
Lat. 45° 39' N Lon. 12° 11' E Alt. 18 metri s.l.m.

sereno

21 °C

Sereno

Temp. 24 Ore

20 °C

31 °C

Nord

3.7 Km/h

Dew point 17 °C

Umidità 77 %

Visibilità  10 Km

Il sole sorge alle ore 06:33

Il sole tramonta alle ore 19:48

Data e Ora Cielo e Fenomeni T °C DP °C Um. % Pres. hPa Vis. km Vento km/h
Oggi h: 07:20 sereno Sereno 21 17 77 1018 10 N 3.7
Oggi h: 06:50 sereno Sereno 20 17 82 1018 10 N 3.7
Oggi h: 06:20 sereno Sereno 20 17 82 1017 10 N 5.5
Oggi h: 05:50 sereno Sereno 20 17 82 1017 10 N 3.7
Oggi h: 05:20 sereno Sereno 20 17 82 1017 10 N 3.7
Oggi h: 04:50 sereno Sereno 21 17 77 1017 10 N 3.7
Oggi h: 04:20 sereno Sereno 21 17 77 1017 10 N 3.7
Oggi h: 03:50 sereno Sereno 20 17 82 1017 10 N 1.8
Oggi h: 03:20 sereno Sereno 21 17 77 1017 10 N 3.7
Oggi h: 02:50 sereno Sereno 21 18 82 1017 10 N 1.8
Oggi h: 02:20 poco_nuvoloso Poco Nuvoloso 22 18 78 1018 10 N 3.7
Oggi h: 01:50 sereno Sereno 21 18 82 1018 10 N 3.7
Oggi h: 01:20 sereno Sereno 21 18 82 1018 10 N 1.8
Oggi h: 00:50 sereno Sereno 21 18 82 1018 10 N 1.8
Oggi h: 00:20 sereno Sereno 21 17 77 1018 10 N 1.8
Ieri h: 23:50 sereno Sereno 22 17 73 1017 10 N 0
Ieri h: 23:20 sereno Sereno 23 17 68 1017 10 N 1.8
Ieri h: 22:50 sereno Sereno 24 17 64 1017 10 N 5.5
Ieri h: 22:20 sereno Sereno 23 18 73 1017 10 N 1.8
Ieri h: 21:50 sereno Sereno 24 17 64 1017 10 N 1.8
Ieri h: 21:20 sereno Sereno 24 17 64 1017 10 N 1.8
Ieri h: 20:50 sereno Sereno 25 17 61 1017 10 N 1.8
Ieri h: 20:20 sereno Sereno 26 17 57 1016 10 N 1.8
Ieri h: 19:50 sereno Sereno 27 17 54 1016 10 N 1.8
Ieri h: 19:20 sereno Sereno 29 16 45 1016 10 N 5.5
Ieri h: 18:50 sereno Sereno 29 15 42 1016 10 N 5.5
Ieri h: 18:20 sereno Sereno 30 15 40 1016 10 N 5.5
Ieri h: 17:20 sereno Sereno 31 15 37 1017 10 SE 7.4
Ieri h: 16:50 sereno Sereno 31 14 35 1017 10 E/SE 7.4
Ieri h: 16:20 sereno Sereno 31 15 37 1017 10 E 9.3
Ieri h: 15:50 sereno Sereno 31 16 40 1017 10 E/SE 11.1
Ieri h: 15:20 sereno Sereno 30 14 37 1017 10 E/SE 13
Ieri h: 14:50 poco_nuvoloso Poco Nuvoloso 30 15 40 1017 10 E/NE 13
Ieri h: 14:20 poco_nuvoloso Poco Nuvoloso 30 16 42 1018 10 E/NE 9.3
Ieri h: 13:50 poco_nuvoloso Poco Nuvoloso 30 15 40 1018 10 NE 11.1
Ieri h: 13:20 poco_nuvoloso Poco Nuvoloso 29 16 45 1018 10 E/NE 14.8
Ieri h: 12:50 poco_nuvoloso Poco Nuvoloso 29 16 45 1018 10 E/NE 13
Ieri h: 12:20 poco_nuvoloso Poco Nuvoloso 29 16 45 1018 10 NE 14.8
Ieri h: 11:50 poco_nuvoloso Poco Nuvoloso 29 16 45 1019 10 E 20.3
Ieri h: 11:20 nuvoloso Nuvoloso 28 16 48 1019 10 NE 14.8
Ieri h: 10:50 molto_nuvoloso Molto Nuvoloso 27 16 50 1018 10 E/NE 16.7
Ieri h: 10:20 molto_nuvoloso Molto Nuvoloso 26 16 54 1018 10 E/NE 16.7
Ieri h: 09:50 molto_nuvoloso Molto Nuvoloso 26 16 54 1018 10 E/NE 18.5
Ieri h: 09:20 molto_nuvoloso Molto Nuvoloso 25 15 53 1018 10 NE 14.8
Ieri h: 08:50 molto_nuvoloso Molto Nuvoloso 25 16 57 1018 10 NE 9.3
Ieri h: 08:20 molto_nuvoloso Molto Nuvoloso 23 16 64 1017 10 N 3.7
Ieri h: 07:50 nuvoloso Nuvoloso 23 17 68 1017 10 N 3.7